Home   Weather   Hong Kong   Past weeks
Flag for Hong Kong

Past Weather in Hong Kong, Hong Kong — Yesterday and Last 2 Weeks

Now
79 °F

Passing clouds.


Feels Like: 81 °F
Forecast: 81 / 74 °F
Wind: 14 mph from East

Location: National Airport

Current Time: Oct 16, 2019 at 2:37:37 am

Latest Report: Oct 16, 2019 at 2:00 am


Visibility: N/A

Pressure: 30.07 "Hg

Humidity: 70%

Dew Point: 68 °F

Location of Hong KongLocation

Past Weather in Hong Kong — Graph

°F

Hong Kong Temperature Yesterday

Maximum temperature yesterday: 86 °F (at 12:00 pm)
Minimum temperature yesterday: 75 °F (at 11:30 pm)
Average temperature yesterday: 81 °F

High & Low Weather Summary for the Past Weeks

 TemperatureHumidityPressure
High93 °F (Oct 1, 1:00 pm)100% (Oct 7, 4:00 am)30.12 "Hg (Oct 7, 4:00 am)
Low75 °F (Oct 6, 2:37 pm)32% (Oct 5, 4:00 pm)29.77 "Hg (Oct 1, 1:00 am)
Average83 °F68%29.93 "Hg
* Reported Oct 1 1:00 am — Oct 16 1:00 am, Hong Kong. Weather by CustomWeather, © 2019

Note: Actual official high and low records may vary slightly from our data, if they occured in-between our weather recording intervals... More about our weather records

Advertising

Hong Kong Weather History for the Previous 24 Hours

Scroll right to see more
 ConditionsComfort  
Time TempWeatherWind HumidityBarometerVisibility
1:00 am
Wed, Oct 16
77 °FPassing clouds.12 mph79%30.09 "HgN/A
12:30 am77 °FPassing clouds.13 mph79%30.09 "HgN/A
12:00 am77 °FPassing clouds.16 mph79%30.09 "HgN/A
11:30 pm
Tue, Oct 15
75 °FLight rain. Passing clouds.17 mph89%30.09 "Hg6 mi
11:00 pm79 °FPassing clouds.15 mph74%30.12 "HgN/A
10:30 pm79 °FPassing clouds.14 mph74%30.09 "HgN/A
10:00 pm79 °FPassing clouds.17 mph74%30.09 "HgN/A
9:30 pm81 °FPassing clouds.13 mph70%30.09 "HgN/A
9:00 pm81 °FPassing clouds.14 mph70%30.09 "HgN/A
8:30 pm82 °FPassing clouds.9 mph62%30.09 "HgN/A
8:00 pm82 °FPassing clouds.9 mph62%30.07 "HgN/A
7:30 pm82 °FPassing clouds.14 mph62%30.07 "HgN/A
7:00 pm82 °FPassing clouds.12 mph58%30.07 "HgN/A
6:30 pm82 °FPassing clouds.12 mph55%30.04 "HgN/A
6:00 pm82 °FPassing clouds.13 mph55%30.04 "HgN/A
5:30 pm82 °FPassing clouds.14 mph55%30.04 "HgN/A
5:00 pm84 °FPassing clouds.13 mph51%30.04 "HgN/A
4:30 pm84 °FPassing clouds.12 mph51%30.04 "HgN/A
4:00 pm86 °FPassing clouds.10 mph46%30.04 "HgN/A
3:30 pm86 °FPassing clouds.10 mph46%30.04 "HgN/A
3:00 pm86 °FPassing clouds.12 mph46%30.04 "HgN/A
2:30 pm86 °FPassing clouds.12 mph43%30.04 "HgN/A
2:00 pm86 °FPassing clouds.12 mph46%30.07 "HgN/A
1:30 pm84 °FPassing clouds.14 mph48%30.07 "HgN/A
1:00 pm86 °FPassing clouds.14 mph46%30.09 "HgN/A
12:30 pm86 °FPassing clouds.15 mph46%30.09 "HgN/A
12:00 pm86 °FPassing clouds.12 mph46%30.09 "HgN/A
11:30 am84 °FPassing clouds.10 mph51%30.12 "HgN/A
11:00 am81 °FPassing clouds.9 mph66%30.12 "HgN/A
10:30 am81 °FPassing clouds.13 mph66%30.12 "HgN/A
10:00 am81 °FScattered clouds.14 mph70%30.12 "HgN/A
9:30 am79 °FScattered clouds.14 mph70%30.12 "HgN/A
9:00 am79 °FScattered clouds.13 mph70%30.12 "HgN/A
8:30 am79 °FScattered clouds.12 mph70%30.12 "HgN/A
8:00 am79 °FScattered clouds.12 mph70%30.12 "HgN/A
7:30 am77 °FScattered clouds.8 mph79%30.12 "Hg6 mi
7:00 am77 °FScattered showers. Scattered clouds.10 mph74%30.09 "HgN/A
6:30 am79 °FScattered clouds.12 mph70%30.09 "HgN/A
6:00 am77 °FPassing clouds.12 mph74%30.09 "HgN/A
5:30 am77 °FPassing clouds.10 mph74%30.07 "HgN/A
5:00 am77 °FPassing clouds.8 mph74%30.07 "Hg6 mi
4:30 am77 °FPassing clouds.10 mph74%30.07 "HgN/A
4:00 am77 °FPassing clouds.10 mph69%30.07 "HgN/A
3:30 am79 °FPassing clouds.12 mph65%30.07 "HgN/A
3:00 am77 °FPassing clouds.8 mph74%30.07 "HgN/A
2:30 am79 °FPassing clouds.14 mph65%30.07 "HgN/A
2:00 am79 °FPassing clouds.13 mph65%30.07 "HgN/A
Weather by CustomWeather, © 2019

See weather overview